Lugano, Switzerland

1:32 PM CET on December 03, 2016 (GMT +0100)
Lugano

Weather History for LSZA - November, 2013

Change the Weather History Date:

Monday, November 25, 2013

  Actual Average Record
Temperature  
Mean Temperature 46 °F -  
Max Temperature 53 °F 47 °F 57 °F (2007)
Min Temperature 39 °F 34 °F 26 °F (1999)
Degree Days  
Heating Degree Days 19    
Moisture  
Dew Point 12 °F    
Average Humidity 24    
Maximum Humidity 61    
Minimum Humidity 4    
Precipitation  
Precipitation 0.00 in - - ()
Sea Level Pressure  
Sea Level Pressure 30.01 in    
Wind  
Wind Speed 11 mph ()    
Max Wind Speed 22 mph    
Max Gust Speed 28 mph    
Averages and records for this station are not official NWS values.
T = Trace of Precipitation, MM = Missing Value Source: Averaged Metar Reports

Daily Weather History Graph

Daily Weather History Graph

Search for Another Location

Airport or City:

Trip Planner

Search our weather history database for the weather conditions in past years. The results will help you decide how hot, cold, wet, or windy it might be!

Date:

Astronomy

Nov. 25, 2013 Rise Set
Actual Time 7:38 AM CET 4:44 PM CET
Civil Twilight 7:04 AM CET 5:17 PM CET
Nautical Twilight 6:28 AM CET 5:54 PM CET
Astronomical Twilight 5:52 AM CET 6:30 PM CET
Moon No Moon Rise 12:35 PM CET (11/25)
Length of Visible Light 10h 12m
Length of Day
9h 05m
Waning Gibbous, 53% of the Moon is Illuminated
Nov 25
Waning Gibbous
Nov 25
Last Quarter
Dec 3
New
Dec 9
First Quarter
Dec 17
Full

Hourly Weather History & Observations

Time (CET) Temp. Windchill Dew Point Humidity Pressure Visibility Wind Dir Wind Speed Gust Speed Precip Events Conditions
12:00 AM 53 °F - 22 °F 18% 29.88 in - North 21.9 mph - -  
12:20 AM 50.0 °F - 26.6 °F 40% 29.89 in - NNW 15.0 mph - N/A   Clear
12:50 AM 50.0 °F - 24.8 °F 37% 29.89 in - NNW 9.2 mph - N/A   Clear
1:20 AM 50.0 °F - 23.0 °F 35% 29.89 in - WNW 8.1 mph - N/A   Clear
1:50 AM 46.4 °F 42.9 °F 24.8 °F 43% 29.89 in - NNW 6.9 mph - N/A   Clear
2:00 AM 51 °F - 22 °F 19% 29.88 in - NNE 9.2 mph - -  
2:20 AM 48.2 °F - 24.8 °F 40% 29.89 in - NNW 6.9 mph - N/A   Clear
2:50 AM 42.8 °F - 26.6 °F 53% 29.89 in - Variable 1.2 mph - N/A   Clear
3:00 AM 52 °F - 20 °F 16% 29.89 in - ENE 9.2 mph - -  
3:20 AM 42.8 °F - 30.2 °F 61% 29.86 in - Variable 2.3 mph - N/A   Clear
3:50 AM 46.4 °F 41.5 °F 23.0 °F 40% 29.86 in - NNW 10.4 mph - N/A   Clear
4:20 AM 42.8 °F 39.3 °F 24.8 °F 49% 29.89 in - North 5.8 mph - N/A   Clear
4:50 AM 42.8 °F 39.3 °F 26.6 °F 53% 29.89 in - NNE 5.8 mph - N/A   Clear
5:00 AM 51 °F - 17 °F 14% 29.90 in - NNE 13.8 mph - -  
5:20 AM 42.8 °F 39.3 °F 26.6 °F 53% 29.89 in - North 5.8 mph - N/A   Clear
5:50 AM 44.6 °F 39.2 °F 23.0 °F 43% 29.89 in - North 10.4 mph - N/A   Clear
6:00 AM 50 °F - 16 °F 15% 29.91 in - NNE 16.1 mph - -  
6:20 AM 44.6 °F 39.2 °F 21.2 °F 39% 29.89 in - North 10.4 mph - N/A   Clear
6:50 AM 48.2 °F - 17.6 °F 30% 29.89 in - NNE 12.7 mph - N/A   Clear
7:20 AM 48.2 °F - 15.8 °F 27% 29.92 in - NNE 10.4 mph - N/A   Clear
7:50 AM 50.0 °F - 15.8 °F 26% 29.92 in - NNE 12.7 mph - N/A   Clear
8:00 AM 50 °F - 13 °F 12% 29.97 in - NNE 16.1 mph - -  
8:20 AM 48.2 °F - 15.8 °F 27% 29.95 in - NNE 11.5 mph - N/A   Clear
8:50 AM 46.4 °F 42.4 °F 15.8 °F 29% 29.98 in - North 8.1 mph 21.9 mph N/A   Clear
9:00 AM 49 °F - 12 °F 11% 30.01 in - NNE 12.7 mph - -  
9:20 AM 50.0 °F - 14.0 °F 24% 29.98 in - NNE 12.7 mph - N/A   Clear
9:50 AM 50.0 °F - 12.2 °F 22% 30.01 in - NNE 15.0 mph 27.6 mph N/A   Clear
10:20 AM 50.0 °F - 12.2 °F 22% 30.01 in - NNE 13.8 mph - N/A   Clear
10:50 AM 50.0 °F - 12.2 °F 22% 30.04 in - North 16.1 mph - N/A   Clear
11:00 AM 51 °F - 7 °F 8% 30.04 in - NE 15.0 mph - -  
11:20 AM 50.0 °F - 6.8 °F 17% 30.04 in - NNE 12.7 mph - N/A   Clear
11:50 AM 50.0 °F - 6.8 °F 17% 30.04 in - NNE 15.0 mph 26.5 mph N/A   Clear
12:00 PM 52 °F - 5 °F 6% 30.04 in - NNE 16.1 mph - -  
12:20 PM 51.8 °F - 6.8 °F 16% 30.04 in - NNE 11.5 mph - N/A   Clear
12:50 PM 51.8 °F - 8.6 °F 18% 30.04 in - NNE 11.5 mph - N/A   Clear
1:20 PM 51.8 °F - 6.8 °F 16% 30.04 in - NNE 11.5 mph - N/A   Clear
1:50 PM 51.8 °F - 8.6 °F 18% 30.04 in - North 13.8 mph - N/A   Clear
2:00 PM 52 °F - -0 °F 4% 30.04 in - NE 15.0 mph - -  
2:20 PM 51.8 °F - 5.0 °F 15% 30.04 in - North 12.7 mph - N/A   Clear
2:50 PM 50.0 °F - 5.0 °F 16% 30.04 in - North 15.0 mph - N/A   Clear
3:00 PM 50 °F - 2 °F 6% 30.04 in - NE 15.0 mph - -  
3:20 PM 50.0 °F - 6.8 °F 17% 30.04 in - North 15.0 mph - N/A   Clear
3:50 PM 48.2 °F - 8.6 °F 20% 30.04 in - North 15.0 mph - N/A   Clear
4:20 PM 46.4 °F 40.7 °F 8.6 °F 22% 30.06 in - North 12.7 mph - N/A   Clear
4:50 PM 44.6 °F 38.1 °F 8.6 °F 23% 30.06 in - North 13.8 mph - N/A   Clear
5:00 PM 47 °F - 0 °F 6% 30.09 in - NE 12.7 mph - -  
5:20 PM 42.8 °F 36.6 °F 8.6 °F 25% 30.06 in - North 11.5 mph - N/A   Clear
5:50 PM 41.0 °F 34.7 °F 6.8 °F 24% 30.06 in - North 10.4 mph - N/A   Clear
6:00 PM 46 °F - -0 °F 6% 30.11 in - ENE 12.7 mph - -  
6:20 PM 42.8 °F 38.0 °F 5.0 °F 21% 30.09 in - NNE 8.1 mph - N/A   Clear
6:50 PM 44.6 °F 38.8 °F 5.0 °F 20% 30.09 in - NNE 11.5 mph - N/A   Clear
7:20 PM 44.6 °F 37.8 °F 3.2 °F 18% 30.09 in - NNE 15.0 mph - N/A   Clear
7:50 PM 42.8 °F 35.4 °F 3.2 °F 19% 30.09 in - NNE 15.0 mph - N/A   Clear
8:00 PM 44 °F - 2 °F 8% 30.14 in - NE 15.0 mph - -  
8:20 PM 42.8 °F 36.2 °F 3.2 °F 19% 30.09 in - NNE 12.7 mph - N/A   Clear
8:50 PM 39.2 °F 33.0 °F 8.6 °F 28% 30.09 in - NNE 9.2 mph - N/A   Clear
9:00 PM 44 °F - -1 °F 6% 30.15 in - NE 11.5 mph - -  
9:20 PM 42.8 °F 36.6 °F 5.0 °F 21% 30.12 in - NNE 11.5 mph - N/A   Clear
9:50 PM 41.0 °F 33.1 °F 5.0 °F 23% 30.12 in - North 15.0 mph - N/A   Clear
10:20 PM 41.0 °F 33.1 °F 3.2 °F 21% 30.12 in - NNE 15.0 mph - N/A   Clear
10:50 PM 41.0 °F 33.1 °F 5.0 °F 23% 30.12 in - NNE 15.0 mph - N/A   Clear
11:00 PM 42 °F - 6 °F 11% 30.17 in - NE 18.4 mph - -  
11:20 PM 41.0 °F 33.9 °F 5.0 °F 23% 30.12 in - NNE 12.7 mph - N/A   Clear
11:50 PM 39.2 °F 31.2 °F 8.6 °F 28% 30.12 in - North 13.8 mph - N/A   Clear